Location: Castle Hill Houses
(40.8186°N, 73.8497°W)
Time: 06:13:20
(UTC+00:00)

SL-16 R/B - Pass Details

Date: 26 January 2020
Orbit: 841 x 848 km, 71.0° (Epoch: 23 February)

Event Time Altitude Azimuth Distance (km) Brightness Sun altitude
Rises 23:57:59 0° 330° (NNW) 3,414 5.7 -21.6°
Reaches altitude 10° 00:00:32 10° 324° (NW) 2,473 5.0 -22.0°
Maximum altitude 00:05:52 44° 254° (WSW) 1,156 3.3 -23.0°
Drops below altitude 10° 00:11:10 10° 183° (S) 2,454 4.7 -24.0°
Sets 00:13:42 0° 177° (S) 3,383 5.4 -24.5°
